CZ-3B DEB, 40839

Orbit data source: Space-Track

CZ-3B DEB, 40839 is space debris in HEO originally from a launch on Mon, 19 Dec 2011 UTC launched from the Xichang Space Center, China (XSC). Debris objects in space refer to the collection of defunct objects orbiting the Earth. Examples of debris include non-operational satellites, rocket bodies, and fragments generated from explosions, collisions, or faulty payload assembly.

Loading next visibility...
Identifier
40839, 2011-077U
Orbit
HEO
Country
Flag of CNCN / PRC
Related business
Manufacturer
CALT
Mission
Spacecraft
Bus & Motor
Unknown
Mass
Unknown
Launch date (UTC)
2011-12-19 (15 years ago)
Launch vehicle
Unknown
Launch site
Xichang Space Center, China (XSC)
Object type
Payload
Rocket body
Debris
Shape & HBR
Unknown shape, 0.2 m
Radar Cross Section
Medium (>0.1 m² and <1 m²)

Expand to show TLE details & history
Last TLE update: 10 hours ago

TLE from 10 hours ago
0 CZ-3B DEB
1 40839U 11077U   26256.68113546  .00000196  00000-0  18997-2 0  9997
2 40839  25.1486 146.2120 7400954  48.0222 354.6356  2.03682703 90704
Epoch: 2026-09-13T16:20Z
TLE epoch observation values (Epoch: 2026-09-13T16:20:50.103Z)
Latitude
-0.00016°
Longitude
-91.50279°
Altitude
1,537.114 km
Speed
9.249 km/s
True Right ascension
09h 45m 30s
True Declination
0° 00' 01"
Sunlit
Object was in daylight at epoch
Visualization orbit readout
Latitude
Unknown
Longitude
Unknown
Altitude
Unknown
Speed
Unknown
Apparent Right ascension
Unknown
Apparent Declination
Unknown
Sunlit
N/A
Visualization observer readout
Local Sidereal Time
18:23:22
Azimuth
Unknown
Elevation
Unknown
Doppler factor
Unknown
Orbital elements
Apogee altitude
39,373.371 km
Perigee altitude
455.412 km
Semi-major axis
26,292.529 km
Eccentricity
0.7401
Inclination
25.1486°
RAAN
146.212°
Arg. of periapsis
48.0222°
True anomaly
311.91734°
Mean anomaly
354.6356°
Eccentric anomaly
340.43633°
Mean motion
0.50909 °/min
Orbital period
707.14 mins
BSTAR
0.0018997
Loading maneuver chart data...
Computing Atmospheric mass density...
Loading historical data...
Loading historical data...
Loading historical data...
Loading historical data...
Loading historical data...
Loading historical data...
Loading historical data...

Documentation

Showing up to 5 results
|